ONEWEB-0064, 45433

Orbit data source: Space-Track

ONEWEB-0064, 45433 is a payload satellite owned by One Web (UK) in LEO that was launched on Sat, 21 Mar 2020 UTC via a SOYUZ-2-1B launch vehicle from the Tyuratam Missile And Space Complex (TTMTR). Payloads include a variety of satellites, spacecraft, and rockets equipped with specific instruments for various scientific and technological missions. These include communications satellites like Starlink; space stations such as the ISS; scientific satellites like the Hubble; Earth observation satellites from companies like Planet Labs, Umbra, and HawkEye 360; GPS; miniature CubeSats for education and research; and military/defense satellites.

Loading next visibility...
ONEWEB-0064 details
Identifier
45433, 2020-020K
Orbit
LEO
Last TLE update5 hours ago
Origin
Flag of UKOne Web (UK)
ManufacturerOne Web
MissionOperational Commercial Communications
Bus & MotorARROW, Unknown motor
Mass148 kg wet, ~140 kg dry
Launch date (UTC)
2020-03-21 (5 years ago)
Launch vehicle
SOYUZ-2-1B
Launch site
Tyuratam Missile And Space Complex (TTMTR)
Object type
Payload
Rocket body
Debris
Shape & HBRTrap Box + 2 Pan, 5 m
Radar Cross Section2.957 m², Large (>1 m²)

Expand to show TLE details & history

TLE from 5 hours ago
0 ONEWEB-0064
1 45433U 20020K   24361.59864065  .00000091  00000-0  22020-3 0  9991
2 45433  87.8907 128.2061 0001576 110.1426 249.9871 13.11416727232228
Epoch: 2024-12-26T14:22Z
Definitive object data (Epoch: 2024-12-26T14:22:02.552Z)
Latitude-0.00006°
Longitude177.11973°
Altitude1,220.983 km
Speed7.244 km/s
True Right ascension08h 32m 49s
True Declination0° 00' 00"
Sunlit
Object was in full shadow at TLE epoch
Visualization TLE readout
Latitude-26.97166°
Longitude176.00683°
Altitude1,228.6 km
Speed7.239 km/s
Apparent Right ascension07h 53m 57s
Apparent Declination-33° 07' 29"
Sunlit
Object is in daylight
Visualization observer readout
Local Sidereal Time19:06:09
Azimuth301.575° NW
Elevation-78.253°
Doppler factor1
Orbital elements
Apogee altitude1,215.998 km
Perigee altitude1,213.605 km
Semi-major axis7,592.939 km
Eccentricity0.0001576
Inclination87.8907°
RAAN128.2061°
Arg. of periapsis110.1426°
True anomaly249.97013°
Mean anomaly249.9871°
Eccentric anomaly249.97862°
Mean motion3.28041 °/min
BSTAR0.0002202
Orbital period109.74 mins
Loading maneuver chart data...
Loading historical data...
Loading historical data...
Loading historical data...
Loading historical data...
Loading historical data...
Loading historical data...
Loading historical data...

ONEWEB-0064 Visibility forecast

Observer location: undefined°, undefined

Span
Click to sort rows by Start time (UTC) header in descending order
Start Az.
Max El. time (UTC)
Max El. Az.
Max El.
End time (UTC)
End Az.
14 mins2024-12-26 20:27:26.592Z7.76° NNE2024-12-26 20:34:26.592Z91.151° ESE40.475°2024-12-26 20:41:26.592Z164.612° S
9 mins2024-12-26 22:19:26.592Z325.748° NNW2024-12-26 22:23:26.592Z285.952° WNW22.733°2024-12-26 22:28:26.592Z237.645° WSW
12 mins2024-12-27 08:47:26.592Z162.703° S2024-12-27 08:52:26.592Z106.903° ESE41.933°2024-12-27 08:59:26.592Z7.535° NNE
9 mins2024-12-27 10:39:26.592Z245.794° WSW2024-12-27 10:43:26.592Z285.065° WNW20.572°2024-12-27 10:48:26.592Z330.504° NNW
|